This is the latest recevied weather packets stored in our database for station/object K7NDG. If no packets are shown the sender has not sent any weather packets the latest 10 day(s).
| Time | Temp. | Humidity | Pressure | Rain* | Wind** | Luminosity | Snow |
|---|---|---|---|---|---|---|---|
| 1777425822 | 12.78° C | 64% | 1024.6 hPa | 0 mm | - | 88 W/m² | - |
| 1777424911 | 12.78° C | 63% | 1024.6 hPa | 0 mm | - | 109 W/m² | - |
| 1777424606 | 13.33° C | 63% | 1024.6 hPa | 0 mm | - | 113 W/m² | - |
| 1777423085 | 13.33° C | 61% | 1024.6 hPa | 0 mm | - | 186 W/m² | - |
| 1777422780 | 13.33° C | 62% | 1024.5 hPa | 0 mm | - | 219 W/m² | - |
| 1777422476 | 12.78° C | 62% | 1024.4 hPa | 0 mm | - | 190 W/m² | - |
| 1777421871 | 13.33° C | 60% | 1024.7 hPa | 0 mm | - | 159 W/m² | - |
| 1777420047 | 13.89° C | 62% | 1024.4 hPa | 0 mm | - | 201 W/m² | - |
| 1777419141 | 13.89° C | 61% | 1024.3 hPa | 0 mm | - | 192 W/m² | - |
| 1777418841 | 13.89° C | 62% | 1024.4 hPa | 0 mm | - | 184 W/m² | - |
| 1777414585 | 12.78° C | 69% | 1024.5 hPa | 0 mm | - | 124 W/m² | - |
| 1777413671 | 12.78° C | 71% | 1024.7 hPa | 0 mm | - | 127 W/m² | - |
| 1777412758 | 12.78° C | 70% | 1024.5 hPa | 0 mm | - | 126 W/m² | - |
| 1777411549 | 12.78° C | 71% | 1024.3 hPa | 0 mm | - | 180 W/m² | - |
| 1777410939 | 12.22° C | 70% | 1024.5 hPa | 0 mm | - | 146 W/m² | - |
| 1777410028 | 12.78° C | 72% | 1024.5 hPa | 0 mm | - | 120 W/m² | - |
| 1777409419 | 12.78° C | 72% | 1024.5 hPa | 0 mm | - | 141 W/m² | - |
| 1777408507 | 12.22° C | 74% | 1024.7 hPa | 0 mm | - | 188 W/m² | - |
| 1777407897 | 11.67° C | 75% | 1024.9 hPa | 0 mm | - | 174 W/m² | - |
| 1777407595 | 11.67° C | 74% | 1025.2 hPa | 0 mm | - | 163 W/m² | - |
| 1777407289 | 11.67° C | 77% | 1025 hPa | 0 mm | - | 165 W/m² | - |
| 1777406988 | 11.67° C | 77% | 1024.9 hPa | 0 mm | - | 153 W/m² | - |
| 1777406380 | 11.67° C | 77% | 1024.8 hPa | 0 mm | - | 148 W/m² | - |
| 1777406079 | 11.67° C | 76% | 1024.8 hPa | 0 mm | - | 168 W/m² | - |
| 1777405472 | 11.67° C | 74% | 1024.8 hPa | 0 mm | - | 171 W/m² | - |
* Rain latest hour (hover to see other rain measurements)
** Current wind speed in m/s (hover to see current wind gust speed)